Location: *
(43.4667°N, 11.6833°E)
Time: 09:05:09
(UTC+00:00)

Cosmos 1634 Rocket - Pass Details

Date: 19 July 2019
Orbit: 959 x 993 km, 82.9° (Epoch: 20 August)

Event Time Altitude Azimuth Distance (km) Brightness Sun altitude
Exits shadow 20:42:40 22° 164° (SSE) 2,006 5.1 -16.4°
Maximum altitude 20:46:45 59° 93° (E) 1,119 4.1 -16.8°
Drops below altitude 10° 20:52:51 10° 15° (NNE) 2,725 6.9 -17.5°
Sets 20:55:24 0° 12° (NNE) 3,671 7.7 -17.7°
